Home   Weather   Melbourne   Past weeks

Flag for Australia Past Weather in Melbourne, Victoria, Australia — Yesterday and Last 2 Weeks

Now
57 °F

Passing clouds.


Feels Like: 55 °F
Forecast: 57 / 63 °F
Wind: 8 mph from West

Location: Melbourne Airport

Current Time: Apr 29, 2017 at 6:14:30 am

Latest Report: Apr 29, 2017 at 5:00 am


Visibility: N/A

Pressure: 30.15 "Hg

Humidity: 82%

Dew Point: 52 °F

Location of MelbourneLocation

Past Weather in Melbourne — Graph

°F

Melbourne Temperature Yesterday

Maximum temperature yesterday: 64 °F (at 2:00 pm)
Minimum temperature yesterday: 52 °F (at 12:00 am)
Average temperature yesterday: 58 °F

High & Low Weather Summary for the Past Weeks

 TemperatureHumidityPressure
High79 °F (Apr 19, 2:30 pm)100% (Apr 17, 6:30 am)30.36 "Hg (Apr 17, 6:30 am)
Low45 °F (Apr 26, 11:30 pm)34% (Apr 20, 2:00 pm)29.62 "Hg (Apr 26, 3:00 am)
Average59 °F77%30.13 "Hg
* Reported Apr 14 5:00 am — Apr 29 5:00 am, Melbourne, Weather by CustomWeather, © 2017

Note: Actual official high and low records may vary slightly from our data, if they occured in-between our weather recording intervals... More about our weather records

Advertising

Melbourne Weather History for the Previous 24 Hours

Scroll right to see more
 ConditionsComfort  
Time TempWeatherWind HumidityBarometerVisibility
5:00 am
Sat, Apr 29
57 °FPassing clouds.8 mph82%30.15 "HgN/A
4:30 am57 °FPassing clouds.8 mph82%30.15 "HgN/A
4:00 am57 °FPassing clouds.8 mph82%30.15 "HgN/A
3:30 am57 °FPassing clouds.8 mph82%30.15 "HgN/A
3:00 am57 °FPassing clouds.8 mph82%30.15 "HgN/A
2:30 am57 °FPassing clouds.8 mph82%30.18 "HgN/A
2:00 am57 °FPassing clouds.10 mph82%30.18 "HgN/A
1:30 am57 °FPassing clouds.8 mph82%30.18 "HgN/A
1:00 am55 °FPassing clouds.5 mph88%30.18 "HgN/A
12:30 am55 °FPassing clouds.7 mph88%30.18 "HgN/A
12:00 am57 °FPartly cloudy.7 mph88%30.18 "HgN/A
11:30 pm
Fri, Apr 28
57 °FPassing clouds.5 mph88%30.18 "HgN/A
11:00 pm57 °FPassing clouds.8 mph88%30.18 "HgN/A
10:00 pm59 °FPartly cloudy.6 mph82%30.21 "HgN/A
9:30 pm59 °FPassing clouds.6 mph77%30.21 "HgN/A
9:00 pm59 °FPassing clouds.8 mph77%30.18 "HgN/A
8:30 pm59 °FPassing clouds.6 mph82%30.18 "HgN/A
8:00 pm59 °FPassing clouds.6 mph82%30.21 "HgN/A
7:30 pm57 °FPassing clouds.5 mph82%30.18 "HgN/A
7:00 pm59 °FPassing clouds.7 mph82%30.18 "HgN/A
6:30 pm61 °FPassing clouds.9 mph77%30.18 "HgN/A
5:30 pm61 °FPartly sunny.6 mph77%30.18 "HgN/A
5:00 pm63 °FScattered showers. Broken clouds.9 mph73%30.18 "HgN/A
4:30 pm63 °FBroken clouds.9 mph68%30.18 "HgN/A
4:00 pm64 °FScattered clouds.10 mph64%30.18 "HgN/A
3:00 pm64 °FBroken clouds.15 mph64%30.18 "HgN/A
2:30 pm64 °FBroken clouds.17 mph60%30.18 "HgN/A
2:00 pm64 °FPartly sunny.14 mph68%30.18 "HgN/A
1:30 pm63 °FPartly sunny.10 mph73%30.18 "HgN/A
1:00 pm63 °FPartly sunny.12 mph73%30.21 "HgN/A
12:30 pm63 °FPartly sunny.13 mph68%30.21 "HgN/A
12:00 pm63 °FPartly sunny.14 mph68%30.21 "HgN/A
11:30 am63 °FBroken clouds.9 mph73%30.21 "HgN/A
11:00 am63 °FBroken clouds.12 mph68%30.24 "HgN/A
10:00 am61 °FBroken clouds.9 mph68%30.24 "HgN/A
9:30 am59 °FPartly sunny.7 mph72%30.24 "HgN/A
9:00 am57 °FPartly sunny.7 mph72%30.24 "HgN/A
8:30 am57 °FPartly sunny.8 mph72%30.24 "HgN/A
8:00 am57 °FPartly sunny.8 mph67%30.21 "HgN/A
7:30 am55 °FPartly sunny.8 mph72%30.21 "HgN/A
7:00 am55 °FPartly sunny.8 mph77%30.21 "HgN/A
6:30 am54 °FPassing clouds.8 mph82%30.21 "HgN/A
6:00 am55 °FPassing clouds.7 mph77%30.21 "HgN/A
Weather by CustomWeather, © 2017

See weather overviewHow to use our weather pages